Back to catalog

COSMOS 1365

AliveMilitaryLEO
NORAD 13175·PAYLOAD·🇷🇺 Russia

Launched May 14, 1982 from Baikonur Cosmodrome

Loading…

Next Passes (next 24 hours)

TLE

FreshSource: Space-Track

Epoch: Sep 14, 2026, 11:45 UTC

1 13175U 82043A   26257.49013649 -.00000069  00000-0  16738-4 0  9997
2 13175  65.0707 332.4172 0054768 358.2754  13.8224 13.89786685252370

Track COSMOS 1365 in real time with AllMySat

Download on the App Store